Powrót do katalogu

CZ-6A DEB

AktywnyPO
NORAD 56258·DEBRIS·🇨🇳 China

Wystrzelony Nov 11, 2022 z Taiyuan Satellite Launch Center

Loading…

Następne Przeloty (najbliższe 24 godziny)

TLE

ŚwieżeSource: Space-Track

Epoka: Sep 14, 2026, 01:44 UTC

1 56258U 22151ACA 26257.07289964  .00009669  00000-0  18243-2 0  9994
2 56258  98.6509 306.5791 0096346 112.4057 248.7384 14.61722747187300

Śledź CZ-6A DEB w czasie rzeczywistym z AllMySat

Download on the App Store